Voltar ao catálogo

TITAN 3C TRANSTAGE DEB

AtivoLEO
NORAD 1959·DEBRIS·🇺🇸 United States

Lançado Oct 15, 1965 de Cape Canaveral Space Force Station

Loading…

Próximas Passagens (próximas 24 horas)

TLE

AtualizadoSource: Space-Track

Época: Sep 14, 2026, 03:41 UTC

1 01959U 65082GU  26257.15377032  .00000491  00000-0  90531-4 0  9991
2 01959  31.7892 205.4544 0062107 325.2932  34.3664 14.59101142226769

Acompanhe TITAN 3C TRANSTAGE DEB em tempo real com AllMySat

Download on the App Store